Weather reports worldwide

Advertisment
Oschatz, Germany (10480): temperature & dewpoint: 14.06.2019 06:00:00 - 20.06.2019 06:00:00 (CEST)Oschatz, Germany (10480): temperature 5cm & temperature -5cm: 14.06.2019 06:00:00 - 20.06.2019 06:00:00 (CEST)Oschatz, Germany (10480): temperature -20cm & temperature -100cm: 14.06.2019 06:00:00 - 20.06.2019 06:00:00 (CEST)Oschatz, Germany (10480): wind speed & gusts: 14.06.2019 06:00:00 - 20.06.2019 06:00:00 (CEST)Oschatz, Germany (10480): wind direction: 14.06.2019 06:00:00 - 20.06.2019 06:00:00 (CEST)Oschatz, Germany (10480): reduced air pressure: 14.06.2019 06:00:00 - 20.06.2019 06:00:00 (CEST)Oschatz, Germany (10480): visibility: 14.06.2019 06:00:00 - 20.06.2019 06:00:00 (CEST)Oschatz, Germany (10480): sunshine duration: 14.06.2019 06:00:00 - 20.06.2019 06:00:00 (CEST)Oschatz, Germany (10480): precipitation: 14.06.2019 06:00:00 - 20.06.2019 06:00:00 (CEST)
Date & Time tt [°C] td [°C] tt 5cm [°C] tt -5cm [°C] tt -20cm [°C] tt -100cm [°C] ff [km/h] ff [kn] fx [km/h] fx [kn] dd ppp [hPa] vv [km] sd [min] rr [mm]
20.06.2019 06:00:00 18,3 14,5 17,7 20,3 24,8 20,1 4 2 14 7 E 1009,1 42 23 0,0
20.06.2019 05:00:00 17,4 14,1 15,7 20,4 25,5 20,1 9 5 21 11 NW 1009,0 43 0 0,0
20.06.2019 04:00:00 16,9 14,6 15,0 21,2 26,1 20,1 4 2 12 7 SSE 1008,7 33 0 0,0
20.06.2019 03:00:00 17,4 14,9 15,9 22,1 26,8 20,0 6 3 11 6 SSE 1008,6 48 0 0,0
20.06.2019 02:00:00 20,6 14,8 18,9 23,3 27,5 20,0 8 4 30 16 ESE 1008,7 69 0 0,0
20.06.2019 01:00:00 20,7 13,6 16,9 24,4 28,2 20,0 29 16 54 29 NW 1008,3 12 0 0,4
20.06.2019 00:00:00 21,4 15,5 20,7 26,0 28,9 20,0 6 3 13 7 S 1008,3 44 0 0,0
19.06.2019 23:00:00 22,5 15,8 21,2 27,2 29,6 20,0 9 5 15 8 S 1008,0 58 0 0,0
19.06.2019 22:00:00 23,2 17,8 20,5 28,9 30,2 20,0 5 3 10 6 S 1008,0 47 0 0,0
19.06.2019 21:00:00 26,2 17,0 24,9 31,3 30,7 19,9 7 4 15 8 S 1007,4 60 42 0,0
19.06.2019 20:00:00 28,2 17,0 28,1 34,4 30,8 19,9 9 5 16 8 S 1007,4 52 60 0,0
19.06.2019 19:00:00 29,4 14,6 30,3 36,3 30,6 19,9 11 6 23 13 S 1007,2 52 55 0,0
19.06.2019 18:00:00 30,2 15,8 32,9 37,6 30,2 19,9 12 7 23 12 S 1007,2 46 59 0,0
19.06.2019 17:00:00 29,3 16,0 31,7 36,1 29,9 19,9 11 6 22 12 SSE 1008,0 45 14 0,0
19.06.2019 16:00:00 30,9 15,3 35,2 39,2 29,1 19,9 11 6 23 12 SSE 1008,4 46 60 0,0
19.06.2019 15:00:00 30,2 14,7 35,2 37,3 28,5 19,9 12 7 20 11 SE 1008,9 75 24 0,0
19.06.2019 14:00:00 29,4 15,4 31,7 36,2 27,8 19,9 9 5 17 9 SSE 1009,3 56 13 0,0
19.06.2019 13:00:00 30,5 14,6 36,1 38,3 26,6 19,9 12 6 19 10 SSE 1009,2 56 51 0,0
19.06.2019 12:00:00 28,5 15,2 32,6 35,5 25,5 19,8 11 6 20 11 S 1009,7 65 58 0,0
19.06.2019 11:00:00 27,6 17,2 32,3 32,5 24,6 19,8 6 4 11 6 S 1010,0 44 60 0,0
19.06.2019 10:00:00 25,7 16,4 29,6 29,3 23,9 19,8 4 2 9 5 SE 1010,6 47 53 0,0
19.06.2019 09:00:00 24,1 15,3 27,4 26,2 23,5 19,8 2 1 7 4 SSW 1011,0 44 56 0,0
19.06.2019 08:00:00 21,3 14,3 25,4 23,0 23,6 19,7 2 1 8 4 E 1011,2 42 60 0,0
19.06.2019 07:00:00 17,4 13,9 17,3 20,8 23,9 19,7 0 0 4 2 N 1011,7 36 24 0,0
19.06.2019 06:00:00 15,4 13,5 14,8 20,7 24,4 19,7 0 0 4 2 N 1011,9 34 0 0,0
19.06.2019 05:00:00 15,6 13,5 14,8 21,2 24,8 19,7 3 2 8 4 ESE 1012,1 37 0 0,0
19.06.2019 04:00:00 15,5 13,7 15,1 21,6 25,3 19,7 3 2 7 4 SE 1012,4 43 0 0,0
19.06.2019 03:00:00 15,7 14,0 14,4 22,1 25,9 19,6 3 2 6 3 S 1012,6 47 0 0,0
19.06.2019 02:00:00 16,0 14,0 15,3 22,8 26,6 19,6 5 3 7 4 SE 1013,0 47 0 0,0
19.06.2019 01:00:00 16,2 14,2 15,0 23,6 27,2 19,6 3 2 5 3 S 1013,4 46 0 0,0
19.06.2019 00:00:00 17,8 14,3 16,4 24,8 27,9 19,6 2 1 12 6 SSE 1013,6 56 0 0,0
18.06.2019 23:00:00 22,4 14,3 21,1 26,2 28,6 19,6 10 5 16 9 ESE 1013,5 58 0 0,0
18.06.2019 22:00:00 23,5 14,0 21,7 27,8 29,3 19,6 7 4 15 8 ESE 1013,6 56 0 0,0
18.06.2019 21:00:00 25,3 13,2 23,7 30,0 29,8 19,6 10 5 19 10 ESE 1013,3 75 29 0,0
18.06.2019 20:00:00 27,3 12,0 27,0 32,9 30,0 19,6 7 4 16 8 SE 1013,1 68 60 0,0
18.06.2019 19:00:00 28,1 11,5 28,7 35,2 29,9 19,6 8 4 19 10 ESE 1013,4 71 60 0,0
18.06.2019 18:00:00 28,8 11,4 30,6 36,9 29,5 19,6 9 5 22 12 SE 1013,6 75 60 0,0
18.06.2019 17:00:00 28,4 11,2 31,0 37,8 28,9 19,6 8 5 25 13 SSE 1014,1 63 60 0,0
18.06.2019 16:00:00 28,3 11,7 32,9 38,1 28,0 19,6 12 7 26 14 ESE 1014,7 75 60 0,0
18.06.2019 15:00:00 28,1 12,0 32,5 37,8 27,0 19,5 10 6 27 14 ESE 1015,4 55 60 0,0
18.06.2019 14:00:00 27,2 11,5 32,2 36,0 25,9 19,5 12 7 29 15 SSE 1016,1 71 53 0,0
18.06.2019 13:00:00 26,4 12,0 30,5 34,3 24,9 19,5 14 8 33 18 ESE 1016,7 63 53 0,0
18.06.2019 12:00:00 26,0 12,3 29,1 32,6 23,9 19,5 12 7 25 14 ESE 1017,1 47 58 0,0
18.06.2019 11:00:00 25,0 13,3 29,9 30,3 22,9 19,5 10 5 19 11 SSE 1017,6 60 60 0,0
18.06.2019 10:00:00 23,7 13,9 27,5 27,2 22,3 19,5 10 5 22 12 ESE 1018,0 70 60 0,0
18.06.2019 09:00:00 21,8 13,4 25,0 24,0 22,0 19,5 6 4 12 6 E 1018,5 44 57 0,0
18.06.2019 08:00:00 18,9 13,5 21,1 21,0 22,0 19,4 8 4 13 7 E 1018,9 44 60 0,0
18.06.2019 07:00:00 17,2 12,5 15,9 18,8 22,4 19,4 5 3 10 5 E 1018,8 37 60 0,0
18.06.2019 06:00:00 14,7 12,4 13,0 18,4 22,9 19,4 3 2 8 4 ENE 1018,9 39 27 0,0
18.06.2019 05:00:00 13,0 12,1 11,4 18,7 23,4 19,4 3 2 5 3 E 1019,1 30 0 0,0
18.06.2019 04:00:00 12,8 11,9 11,1 19,3 24,0 19,4 5 3 5 3 SW 1019,1 29 0 0,0
18.06.2019 03:00:00 13,0 11,9 11,7 20,1 24,6 19,4 3 2 5 3 SSW 1019,5 30 0 0,0
18.06.2019 02:00:00 13,9 12,4 12,5 21,0 25,3 19,4 3 2 4 2 S 1019,5 31 0 0,0
18.06.2019 01:00:00 15,1 12,7 13,5 22,0 26,0 19,4 0 0 6 3 N 1019,8 43 0 0,0
18.06.2019 00:00:00 15,8 13,4 14,4 23,2 26,7 19,4 4 2 5 3 S 1019,6 40 0 0,0
17.06.2019 23:00:00 17,6 13,2 16,1 24,7 27,4 19,4 3 2 11 6 S 1019,4 10 0 0,0
17.06.2019 22:00:00 22,4 12,2 20,3 26,5 28,0 19,4 6 3 10 5 E 1019,0 59 0 0,0
17.06.2019 21:00:00 24,4 11,9 23,0 28,7 28,5 19,4 7 4 16 9 E 1018,7 65 50 0,0
17.06.2019 20:00:00 25,8 10,8 25,4 31,3 28,8 19,4 8 5 17 9 E 1018,7 61 60 0,0
17.06.2019 19:00:00 26,2 10,6 26,8 33,5 28,7 19,4 10 6 19 10 E 1019,0 55 60 0,0
17.06.2019 18:00:00 26,5 10,1 28,2 35,1 28,4 19,4 8 4 18 10 SE 1019,4 58 52 0,0
17.06.2019 17:00:00 26,0 10,3 27,4 36,4 27,8 19,4 11 6 22 12 E 1019,9 61 45 0,0
17.06.2019 16:00:00 26,6 9,5 31,1 37,9 26,9 19,4 8 5 17 9 E 1020,4 75 60 0,0
17.06.2019 15:00:00 26,4 10,6 31,9 36,9 25,9 19,4 9 5 20 11 ESE 1020,8 65 50 0,0
17.06.2019 14:00:00 25,4 10,9 31,1 35,8 24,7 19,4 9 5 26 14 ENE 1021,2 45 59 0,0
17.06.2019 13:00:00 25,3 11,2 31,0 34,0 23,5 19,4 8 4 18 10 E 1021,6 73 60 0,0
17.06.2019 12:00:00 23,5 9,9 28,0 31,4 22,4 19,4 9 5 18 10 E 1022,0 59 60 0,0
17.06.2019 11:00:00 22,4 12,4 26,9 28,8 21,4 19,4 8 4 16 8 SSW 1022,2 55 60 0,0
17.06.2019 10:00:00 20,9 13,2 26,3 25,9 20,7 19,4 7 4 13 7 E 1022,7 31 60 0,0
17.06.2019 09:00:00 20,3 13,9 21,8 22,7 20,3 19,4 6 4 12 6 SSE 1022,9 37 56 0,0
17.06.2019 08:00:00 18,8 14,2 18,9 19,8 20,2 19,4 0 0 4 2 N 1023,0 27 60 0,0
17.06.2019 07:00:00 15,4 13,5 15,0 17,2 20,5 19,4 2 1 8 4 SW 1023,0 17 41 0,0
17.06.2019 06:00:00 13,3 12,8 12,8 16,6 20,9 19,4 6 3 7 4 SSW 1023,2 11 0 0,0
17.06.2019 05:00:00 13,8 13,0 12,9 17,0 21,3 19,4 4 2 8 5 SSE 1022,8 21 0 0,0
17.06.2019 04:00:00 13,6 13,0 12,6 17,7 21,7 19,4 4 2 6 3 SSW 1022,1 20 0 0,0
17.06.2019 03:00:00 14,4 13,6 13,5 18,3 22,1 19,4 4 2 6 3 SW 1022,3 8 0 0,0
17.06.2019 02:00:00 15,3 14,0 14,6 19,2 22,5 19,4 3 2 8 4 SSW 1022,6 29 0 0,0
17.06.2019 01:00:00 16,0 14,2 15,7 19,6 23,0 19,4 4 2 6 4 SSE 1022,4 41 0 0,0
17.06.2019 00:00:00 15,7 14,3 14,5 20,3 23,5 19,4 3 2 7 4 WSW 1022,2 42 0 0,0
16.06.2019 23:00:00 16,9 14,2 16,3 21,3 24,0 19,4 3 1 4 2 SW 1022,1 46 0 0,0
16.06.2019 22:00:00 17,5 13,9 17,0 22,4 24,4 19,4 0 0 6 4 N 1022,1 66 0 0,0
16.06.2019 21:00:00 18,3 13,1 17,4 23,8 24,8 19,4 5 3 8 4 NW 1021,7 71 16 0,0
16.06.2019 20:00:00 21,1 9,2 22,7 26,2 24,9 19,4 6 3 9 5 NNW 1021,3 54 19 0,0
16.06.2019 19:00:00 20,5 11,4 21,3 27,4 24,8 19,4 5 3 16 9 NNW 1021,0 75 6 0,0
16.06.2019 18:00:00 21,0 9,6 23,1 29,6 24,3 19,4 10 6 21 11 N 1021,0 75 39 0,0
16.06.2019 17:00:00 20,9 11,1 23,3 30,7 23,4 19,4 11 6 20 11 NNW 1021,2 67 39 0,0
16.06.2019 16:00:00 21,0 10,6 25,5 30,6 22,6 19,4 11 6 21 11 NNW 1021,3 68 45 0,0
16.06.2019 15:00:00 19,5 13,6 23,2 25,2 22,2 19,4 11 6 18 10 NW 1021,2 41 0 0,0
16.06.2019 14:00:00 18,6 13,7 20,3 22,9 22,0 19,4 10 5 21 12 W 1021,6 56 0 0,0
16.06.2019 13:00:00 18,5 14,3 20,4 22,6 21,8 19,4 11 6 17 9 WNW 1021,1 47 0 0,0
16.06.2019 12:00:00 17,7 15,0 18,7 21,6 21,8 19,3 8 4 17 9 NNW 1020,5 41 0 0,0
16.06.2019 11:00:00 16,9 15,1 16,5 20,5 21,9 19,3 8 4 18 10 NW 1020,6 25 0 0,5
16.06.2019 10:00:00 16,8 13,9 17,2 20,5 22,0 19,3 10 5 16 9 SW 1020,7 59 0 0,0
16.06.2019 09:00:00 16,7 13,7 17,3 20,2 22,1 19,3 10 5 14 8 W 1019,9 63 0 0,0
16.06.2019 08:00:00 16,7 13,6 16,9 20,1 22,3 19,3 5 3 10 6 W 1019,2 74 0 0,0
16.06.2019 07:00:00 16,4 13,2 16,8 19,8 22,6 19,2 10 5 19 10 NNW 1018,3 67 36 0,0
16.06.2019 06:00:00 15,5 13,5 15,4 18,7 23,0 19,2 8 4 18 10 WNW 1017,9 49 0 0,0
16.06.2019 05:00:00 16,0 12,8 14,9 18,7 23,6 19,2 13 7 21 11 WNW 1017,5 65 0 0,0
16.06.2019 04:00:00 15,4 13,1 14,1 19,6 24,2 19,2 10 5 12 7 W 1017,1 56 0 0,0
16.06.2019 03:00:00 16,6 13,8 15,0 20,4 24,8 19,1 8 5 15 8 WNW 1017,0 59 0 0,0
16.06.2019 02:00:00 17,5 14,6 16,8 21,5 25,4 19,1 8 4 14 7 NW 1017,1 57 0 0,0
16.06.2019 01:00:00 17,7 14,4 16,1 21,9 26,0 19,1 9 5 22 12 NNW 1016,4 64 0 0,0
16.06.2019 00:00:00 19,4 14,3 18,7 23,0 26,8 19,1 16 8 35 19 NW 1015,7 70 0 0,0
15.06.2019 23:00:00 20,7 14,4 19,9 24,4 27,5 19,1 19 11 32 17 WNW 1014,7 55 0 0,0
15.06.2019 22:00:00 22,3 14,6 21,6 26,3 28,1 19,1 16 9 22 12 W 1013,9 75 0 0,0
15.06.2019 21:00:00 23,4 13,6 22,7 28,4 28,7 19,1 14 8 23 13 W 1012,5 75 46 0,0
15.06.2019 20:00:00 25,5 12,6 26,4 30,8 29,0 19,1 17 9 40 22 W 1012,4 73 57 0,0
15.06.2019 19:00:00 26,8 14,0 28,3 32,7 29,1 19,1 18 10 42 23 W 1011,7 67 51 0,0
15.06.2019 18:00:00 26,5 13,5 27,4 34,4 28,9 19,1 26 14 46 25 W 1011,2 75 57 0,0
15.06.2019 17:00:00 27,7 14,7 30,5 36,2 28,5 19,1 29 16 44 24 W 1011,5 62 58 0,0
15.06.2019 16:00:00 28,3 16,6 31,4 35,0 28,0 19,0 29 16 42 23 W 1010,7 38 4 0,0
15.06.2019 15:00:00 29,6 16,9 32,0 37,6 27,1 19,0 17 9 33 18 WSW 1010,1 45 44 0,0
15.06.2019 14:00:00 29,9 16,2 32,7 36,6 26,0 19,0 19 10 41 22 SW 1009,9 43 47 0,0
15.06.2019 13:00:00 30,3 15,3 33,3 35,8 24,9 19,0 22 12 36 19 SSW 1009,3 41 54 0,0
15.06.2019 12:00:00 29,5 16,7 31,2 33,4 23,9 19,0 22 12 37 20 SW 1008,9 37 43 0,0
15.06.2019 11:00:00 29,6 19,2 31,8 31,3 22,9 19,0 16 9 25 13 SW 1008,5 34 57 0,0
15.06.2019 10:00:00 26,8 20,6 29,5 27,5 22,3 19,0 8 4 20 11 S 1008,6 24 40 0,0
15.06.2019 09:00:00 24,3 19,5 25,6 24,0 22,1 19,0 10 6 18 10 E 1008,7 21 11 0,0
15.06.2019 08:00:00 22,3 18,9 22,4 22,0 22,1 19,0 9 5 19 10 E 1008,8 20 22 0,0
15.06.2019 07:00:00 21,8 18,4 21,4 21,0 22,2 19,0 10 6 21 11 E 1008,9 19 21 0,0
15.06.2019 06:00:00 21,1 17,8 20,3 20,5 22,4 19,0 11 6 34 18 E 1009,1 24 0 0,0
15.06.2019 05:00:00 21,3 17,5 20,5 20,7 22,7 18,9 15 8 29 15 ENE 1009,2 31 0 0,0
15.06.2019 04:00:00 22,2 17,4 21,5 21,0 23,0 18,9 15 8 26 14 ENE 1010,3 34 0 0,0
15.06.2019 03:00:00 21,1 16,9 20,7 21,1 23,4 18,9 14 8 22 12 N 1011,8 37 0 0,0
15.06.2019 02:00:00 21,2 15,8 20,2 21,2 23,8 18,9 10 5 22 12 ENE 1012,1 41 0 0,0
15.06.2019 01:00:00 22,2 15,2 20,9 21,8 24,2 18,9 10 5 18 10 E 1012,9 42 0 0,0
15.06.2019 00:00:00 22,5 15,6 20,9 22,4 24,7 18,9 9 5 13 7 E 1013,7 51 0 0,0
14.06.2019 23:00:00 23,7 16,4 22,2 23,6 25,2 18,9 6 4 16 8 ENE 1014,3 46 0 0,0
14.06.2019 22:00:00 24,4 16,6 23,4 24,6 25,7 18,9 9 5 22 12 E 1014,6 45 0 0,0
14.06.2019 21:00:00 25,4 16,2 24,6 25,7 26,1 18,9 11 6 25 14 E 1014,4 61 0 0,0
14.06.2019 20:00:00 26,2 15,8 25,6 27,2 26,4 19,0 16 8 27 15 E 1014,0 64 0 0,0
14.06.2019 19:00:00 27,7 12,6 27,4 28,8 26,7 19,0 12 6 19 11 E 1014,8 51 0 0,0
14.06.2019 18:00:00 28,3 12,4 28,6 30,6 26,6 19,0 8 5 23 13 E 1015,2 75 0 0,0
14.06.2019 17:00:00 28,8 11,4 30,4 34,3 26,0 19,0 13 7 25 13 ESE 1015,8 56 54 0,0
14.06.2019 16:00:00 29,2 11,1 33,7 34,6 25,2 19,0 12 7 25 13 ESE 1016,5 75 55 0,0
14.06.2019 15:00:00 28,6 10,5 33,5 33,2 24,3 19,0 13 7 22 12 SE 1016,8 75 31 0,0
14.06.2019 14:00:00 28,5 7,1 33,1 33,7 23,2 19,0 14 8 26 14 ESE 1017,2 39 60 0,0
14.06.2019 13:00:00 27,5 12,9 31,2 31,0 22,2 19,0 13 7 25 13 ESE 1017,8 43 60 0,0
14.06.2019 12:00:00 26,7 9,3 29,7 28,4 21,4 19,0 11 6 22 12 ESE 1018,6 66 60 0,0
14.06.2019 11:00:00 25,5 12,5 27,7 27,1 20,5 19,0 11 6 19 10 ESE 1018,5 59 60 0,0
14.06.2019 10:00:00 24,2 15,8 26,0 25,1 19,7 19,0 6 4 16 9 E 1018,8 41 60 0,0
14.06.2019 09:00:00 22,0 15,7 22,8 22,3 19,2 19,0 7 4 13 7 SE 1018,8 37 57 0,0
14.06.2019 08:00:00 19,2 15,0 18,9 19,1 19,1 19,0 8 4 14 7 S 1018,8 43 60 0,0
14.06.2019 07:00:00 16,1 13,2 14,2 15,8 19,3 19,0 6 3 11 6 S 1018,8 36 60 0,0
14.06.2019 06:00:00 13,2 12,4 12,3 15,2 19,7 19,0 6 3 10 5 S 1018,8 24 27 0,0

tt = temperature
td = dewpoint
tt 5cm = temperature 5cm
tt -5cm = temperature -5cm
tt -20cm = temperature -20cm
tt -100cm = temperature -100cm
ff = wind speed
fx = gusts
dd = wind direction
ppp = reduced air pressure
vv = visibility
sd = sunshine duration
rr = precipitation

Next stations